Weather History for Chino, CA

Change the Weather History Date:

Saturday, February 16, 2013

  Actual Average Record
Temperature  
Mean Temperature 59 °F -  
Max Temperature 82 °F 63 °F 84 °F (2007)
Min Temperature 36 °F 41 °F 33 °F (2008)
Degree Days  
Heating Degree Days 6    
Growing Degree Days 9 (Base 50)    
Moisture  
Dew Point 26 °F    
Average Humidity 37    
Maximum Humidity 76    
Minimum Humidity 6    
Precipitation  
Precipitation 0.00 in - - ()
Sea Level Pressure  
Sea Level Pressure 30.09 in    
Wind  
Wind Speed 3 mph (NE)    
Max Wind Speed 15 mph    
Max Gust Speed -    
Visibility 10 miles    
Events      
Averages and records for this station are not official NWS values.
T = Trace of Precipitation, MM = Missing Value Source: NWS Daily Summary

Daily Weather History Graph

Daily Weather History Graph

Search for Another Location

Airport:

Trip Planner

Search our weather history database for the weather conditions in past years. The results will help you decide how hot, cold, wet, or windy it might be!

Date:

Astronomy

Feb. 16, 2013 Rise Set
Actual Time 6:33 AM PST 5:35 PM PST
Civil Twilight 6:08 AM PST 6:01 PM PST
Nautical Twilight 5:39 AM PST 6:30 PM PST
Astronomical Twilight 5:10 AM PST 6:59 PM PST
Moon 10:09 AM PST (2/16) No Moon Set
Length of Visible Light 11h 53m
Length of Day
11h 02m
Waxing Crescent, 40% of the Moon is Illuminated
Feb 16
Waxing Crescent
Feb 17
First Quarter
Feb 25
Full
Mar 4
Last Quarter
Mar 11
New

Hourly Weather History & Observations

Time (PST) Temp. Windchill Dew Point Humidity Pressure Visibility Wind Dir Wind Speed Gust Speed Precip Events Conditions
12:53 AM 50.0 °F - 26.1 °F 39% 30.18 in 10.0 mi ENE 3.5 mph - N/A   Clear
1:53 AM 39.0 °F 35.7 °F 32.0 °F 76% 30.17 in 10.0 mi North 4.6 mph - N/A   Clear
2:53 AM 46.9 °F - 27.0 °F 46% 30.16 in 10.0 mi Calm Calm - N/A   Clear
3:53 AM 39.9 °F - 30.9 °F 70% 30.15 in 10.0 mi Calm Calm - N/A   Clear
4:53 AM 44.1 °F - 27.0 °F 51% 30.15 in 10.0 mi Calm Calm - N/A   Clear
5:53 AM 37.9 °F - 28.0 °F 68% 30.16 in 10.0 mi Calm Calm - N/A   Clear
6:53 AM 36.0 °F - 28.0 °F 73% 30.17 in 10.0 mi Calm Calm - N/A   Scattered Clouds
7:53 AM 48.0 °F - 32.0 °F 54% 30.19 in 10.0 mi NE 4.6 mph - N/A   Scattered Clouds
8:53 AM 61.0 °F - 30.0 °F 31% 30.18 in 10.0 mi Calm Calm - N/A   Mostly Cloudy
9:53 AM 66.9 °F - 26.1 °F 21% 30.17 in 10.0 mi East 3.5 mph - N/A   Mostly Cloudy
10:53 AM 71.1 °F - 28.0 °F 20% 30.15 in 10.0 mi Calm Calm - N/A   Mostly Cloudy
11:53 AM 78.1 °F - 27.0 °F 15% 30.12 in 10.0 mi Variable 4.6 mph - N/A   Mostly Cloudy
12:53 PM 81.0 °F - 19.0 °F 10% 30.07 in 10.0 mi East 6.9 mph - N/A   Mostly Cloudy
1:53 PM 82.0 °F - 16.0 °F 8% 30.03 in 10.0 mi Calm Calm - N/A   Mostly Cloudy
2:53 PM 82.0 °F - 8.1 °F 6% 30.00 in 10.0 mi Calm Calm - N/A   Mostly Cloudy
3:53 PM 80.1 °F - 27.0 °F 14% 29.99 in 10.0 mi Calm Calm - N/A   Scattered Clouds
4:53 PM 73.9 °F - 21.9 °F 14% 29.99 in 10.0 mi West 15.0 mph - N/A   Partly Cloudy
5:53 PM 64.9 °F - 25.0 °F 22% 30.00 in 10.0 mi West 8.1 mph - N/A   Partly Cloudy
6:53 PM 57.0 °F - 26.1 °F 30% 30.01 in 10.0 mi WSW 4.6 mph - N/A   Clear
7:53 PM 60.1 °F - 23.0 °F 24% 30.00 in 10.0 mi WSW 3.5 mph - N/A   Clear
8:53 PM 54.0 °F - 28.0 °F 37% 30.01 in 10.0 mi NE 4.6 mph - N/A   Clear
9:53 PM 51.1 °F - 32.0 °F 48% 30.01 in 10.0 mi East 3.5 mph - N/A   Clear
10:53 PM 48.0 °F - 32.0 °F 54% 30.00 in 10.0 mi Calm Calm - N/A   Clear
11:53 PM 46.9 °F - 30.9 °F 54% 29.98 in 10.0 mi Calm Calm - N/A   Clear